TimeCST,TemperatureF,Dew PointF,Humidity,Sea Level PressureIn,VisibilityMPH,Wind Direction,Wind SpeedMPH,Gust SpeedMPH,PrecipitationIn,Events,Conditions,WindDirDegrees,DateUTC
12:15 AM,-0.4,-14.8,51,30.52,10.0,North,15.0,20.7,N/A,,Clear,10,2013-01-24 06:15:00
12:35 AM,-0.4,-14.8,51,30.52,10.0,North,13.8,-,N/A,,Clear,10,2013-01-24 06:35:00
12:55 AM,-0.4,-14.8,51,30.52,10.0,North,10.4,17.3,N/A,,Clear,10,2013-01-24 06:55:00
1:15 AM,-0.4,-14.8,51,30.54,10.0,NNE,10.4,18.4,N/A,,Clear,20,2013-01-24 07:15:00
1:35 AM,-0.4,-14.8,51,30.54,10.0,North,12.7,-,N/A,,Clear,10,2013-01-24 07:35:00
1:55 AM,-0.4,-14.8,51,30.54,10.0,NNE,11.5,-,N/A,,Clear,20,2013-01-24 07:55:00
2:15 AM,-2.2,-14.8,55,30.56,10.0,NNE,9.2,16.1,N/A,,Clear,20,2013-01-24 08:15:00
2:35 AM,-2.2,-14.8,55,30.57,10.0,North,11.5,-,N/A,,Clear,10,2013-01-24 08:35:00
2:55 AM,-2.2,-14.8,55,30.56,10.0,NNE,11.5,-,N/A,,Clear,20,2013-01-24 08:55:00
3:15 AM,-2.2,-14.8,55,30.56,10.0,North,12.7,-,N/A,,Clear,10,2013-01-24 09:15:00
3:35 AM,-2.2,-14.8,55,30.58,10.0,NNE,11.5,-,N/A,,Clear,20,2013-01-24 09:35:00
3:55 AM,-2.2,-14.8,55,30.57,10.0,NNE,12.7,-,N/A,,Clear,30,2013-01-24 09:55:00
4:15 AM,-2.2,-14.8,55,30.57,10.0,NNE,11.5,-,N/A,,Clear,30,2013-01-24 10:15:00
4:55 AM,-2.2,-14.8,55,30.57,10.0,NE,10.4,-,N/A,,Clear,40,2013-01-24 10:55:00
5:15 AM,-2.2,-14.8,55,30.57,10.0,NE,9.2,-,N/A,,Clear,40,2013-01-24 11:15:00
5:35 AM,-2.2,-14.8,55,30.57,-9999.0,NE,6.9,-,N/A,,Clear,50,2013-01-24 11:35:00
5:55 AM,-2.2,-14.8,55,30.57,10.0,NE,8.1,-,N/A,,Clear,50,2013-01-24 11:55:00
6:15 AM,-2.2,-14.8,55,30.59,10.0,NE,6.9,-,N/A,,Clear,50,2013-01-24 12:15:00
6:35 AM,-2.2,-14.8,55,30.58,10.0,NE,6.9,-,N/A,,Clear,50,2013-01-24 12:35:00
6:55 AM,-0.4,-14.8,51,30.61,10.0,Variable,5.8,-,N/A,,Partly Cloudy,0,2013-01-24 12:55:00
7:15 AM,-0.4,-13.0,55,30.61,10.0,NE,6.9,-,N/A,,Partly Cloudy,50,2013-01-24 13:15:00
7:35 AM,-0.4,-13.0,55,30.61,10.0,ENE,9.2,-,N/A,,Partly Cloudy,60,2013-01-24 13:35:00
7:55 AM,-0.4,-13.0,55,30.62,10.0,NE,6.9,-,N/A,,Partly Cloudy,40,2013-01-24 13:55:00
8:15 AM,-0.4,-13.0,55,30.61,10.0,East,10.4,-,N/A,,Clear,80,2013-01-24 14:15:00
8:35 AM,-0.4,-13.0,55,30.60,10.0,East,9.2,-,N/A,,Clear,100,2013-01-24 14:35:00
8:55 AM,1.4,-13.0,51,30.59,10.0,East,11.5,-,N/A,,Clear,90,2013-01-24 14:55:00
9:15 AM,1.4,-11.2,56,30.57,10.0,East,12.7,-,N/A,,Clear,90,2013-01-24 15:15:00
9:35 AM,3.2,-11.2,51,30.58,10.0,ESE,8.1,-,N/A,,Clear,110,2013-01-24 15:35:00
9:55 AM,3.2,-11.2,51,30.59,10.0,ESE,5.8,-,N/A,,Clear,120,2013-01-24 15:55:00
10:15 AM,3.2,-9.4,56,30.57,10.0,SE,8.1,-,N/A,,Clear,130,2013-01-24 16:15:00
10:35 AM,5.0,-9.4,52,30.58,10.0,SE,6.9,-,N/A,,Clear,130,2013-01-24 16:35:00
10:55 AM,6.8,-9.4,48,30.57,10.0,ESE,8.1,13.8,N/A,,Clear,110,2013-01-24 16:55:00
11:15 AM,6.8,-9.4,48,30.56,10.0,SE,10.4,-,N/A,,Clear,130,2013-01-24 17:15:00
11:35 AM,8.6,-9.4,44,30.56,-9999.0,SE,9.2,17.3,N/A,,Clear,130,2013-01-24 17:35:00
11:55 AM,8.6,-9.4,44,30.55,10.0,SE,10.4,-,N/A,,Clear,140,2013-01-24 17:55:00
12:15 PM,10.4,-9.4,41,30.53,10.0,SSE,11.5,-,N/A,,Clear,150,2013-01-24 18:15:00
12:35 PM,10.4,-9.4,41,30.53,10.0,SSE,6.9,15.0,N/A,,Clear,150,2013-01-24 18:35:00
12:55 PM,10.4,-9.4,41,30.50,10.0,SSE,11.5,-,N/A,,Clear,150,2013-01-24 18:55:00
1:15 PM,10.4,-9.4,41,30.49,10.0,SE,13.8,-,N/A,,Clear,130,2013-01-24 19:15:00
1:35 PM,12.2,-9.4,38,30.47,10.0,SSE,13.8,-,N/A,,Clear,150,2013-01-24 19:35:00
1:55 PM,12.2,-9.4,38,30.44,10.0,SE,12.7,-,N/A,,Clear,130,2013-01-24 19:55:00
2:15 PM,12.2,-9.4,38,30.43,10.0,SE,13.8,-,N/A,,Clear,140,2013-01-24 20:15:00
2:35 PM,14.0,-9.4,35,30.43,10.0,SE,13.8,-,N/A,,Clear,130,2013-01-24 20:35:00
2:55 PM,12.2,-9.4,38,30.43,10.0,SE,10.4,18.4,N/A,,Clear,140,2013-01-24 20:55:00
3:15 PM,14.0,-9.4,35,30.42,10.0,SE,11.5,-,N/A,,Clear,130,2013-01-24 21:15:00
3:35 PM,14.0,-9.4,35,30.40,10.0,ESE,12.7,-,N/A,,Clear,120,2013-01-24 21:35:00
3:55 PM,14.0,-9.4,35,30.39,10.0,SE,11.5,-,N/A,,Clear,140,2013-01-24 21:55:00
4:15 PM,14.0,-9.4,35,30.38,10.0,SE,13.8,-,N/A,,Clear,130,2013-01-24 22:15:00
4:35 PM,14.0,-9.4,35,30.37,10.0,SE,12.7,-,N/A,,Clear,140,2013-01-24 22:35:00
4:55 PM,14.0,-7.6,38,30.35,10.0,SE,13.8,-,N/A,,Mostly Cloudy,140,2013-01-24 22:55:00
5:15 PM,14.0,-7.6,38,30.34,10.0,SE,13.8,-,N/A,,Overcast,140,2013-01-24 23:15:00
5:35 PM,14.0,-7.6,38,30.33,10.0,North,-9999.0,-,N/A,,Overcast,0,2013-01-24 23:35:00
5:55 PM,14.0,-7.6,38,30.32,10.0,SE,16.1,-,N/A,,Overcast,140,2013-01-24 23:55:00
6:15 PM,14.0,-7.6,38,30.31,10.0,SE,16.1,21.9,N/A,,Overcast,140,2013-01-25 00:15:00
6:35 PM,14.0,-7.6,38,30.31,10.0,SE,12.7,20.7,N/A,,Overcast,140,2013-01-25 00:35:00
6:55 PM,14.0,-7.6,38,30.31,10.0,SE,12.7,19.6,N/A,,Overcast,140,2013-01-25 00:55:00
7:15 PM,14.0,-5.8,41,30.31,10.0,SE,16.1,-,N/A,,Overcast,140,2013-01-25 01:15:00
7:35 PM,14.0,-5.8,41,30.31,10.0,SSE,15.0,-,N/A,,Overcast,150,2013-01-25 01:35:00
7:55 PM,15.8,-4.0,41,30.29,10.0,SSE,11.5,21.9,N/A,,Overcast,150,2013-01-25 01:55:00
8:15 PM,15.8,-4.0,41,30.28,10.0,SSE,13.8,20.7,N/A,,Overcast,150,2013-01-25 02:15:00
8:35 PM,15.8,-4.0,41,30.25,10.0,SSE,17.3,23.0,N/A,,Overcast,150,2013-01-25 02:35:00
8:55 PM,15.8,-4.0,41,30.24,10.0,SSE,18.4,25.3,N/A,,Overcast,150,2013-01-25 02:55:00
9:15 PM,15.8,-2.2,45,30.23,10.0,SSE,17.3,-,N/A,,Overcast,150,2013-01-25 03:15:00
9:35 PM,15.8,-2.2,45,30.23,10.0,SSE,15.0,24.2,N/A,,Overcast,150,2013-01-25 03:35:00
9:55 PM,15.8,-2.2,45,30.25,10.0,SSE,13.8,20.7,N/A,,Overcast,160,2013-01-25 03:55:00
10:15 PM,15.8,-2.2,45,30.24,10.0,SSE,16.1,-,N/A,,Overcast,160,2013-01-25 04:15:00
10:35 PM,15.8,-0.4,49,30.22,10.0,SSE,15.0,21.9,N/A,,Overcast,150,2013-01-25 04:35:00
10:55 PM,15.8,-0.4,49,30.19,10.0,SSE,19.6,-,N/A,,Overcast,150,2013-01-25 04:55:00
11:15 PM,15.8,1.4,53,30.20,10.0,SSE,13.8,20.7,N/A,,Overcast,160,2013-01-25 05:15:00
11:35 PM,17.6,1.4,49,30.20,10.0,SSE,13.8,-,N/A,,Overcast,160,2013-01-25 05:35:00
11:55 PM,17.6,1.4,49,30.19,-9999.0,SSE,13.8,19.6,N/A,,Overcast,160,2013-01-25 05:55:00